DELTA 1 DEB, 7079

Orbit data source: Space-Track

DELTA 1 DEB, 7079 is space debris in SSO originally from a launch on Tue, 06 Nov 1973 UTC launched from the Air Force Western Test Range (AFWTR). Debris objects in space refer to the collection of defunct objects orbiting the Earth. Examples of debris include non-operational satellites, rocket bodies, and fragments generated from explosions, collisions, or faulty payload assembly.

Loading next visibility...
Identifier
7079, 1973-086BX
Orbit
SSO
Country
Flag of USUS
Related business
Manufacturer
Unknown
Mission
Spacecraft
Bus & Motor
Unknown
Mass
Unknown
Launch date (UTC)
1973-11-06 (53 years ago)
Launch vehicle
Unknown
Launch site
Air Force Western Test Range (AFWTR)
Object type
Payload
Rocket body
Debris
Shape & HBR
Unknown shape, 0.3 m
Radar Cross Section
Medium (>0.1 m² and <1 m²)

Expand to show TLE details & history
Last TLE update: 8 hours ago

TLE from 8 hours ago
0 DELTA 1 DEB
1 07079U 73086BX  26255.89474549 -.00000069  00000-0 -20462-3 0  9991
2 07079 101.9258 218.9197 0039632  41.9895  28.8606 12.34180996373902
Epoch: 2026-09-12T21:28Z
TLE epoch observation values (Epoch: 2026-09-12T21:28:26.010Z)
Latitude
67.82321°
Longitude
-126.12383°
Altitude
1,515.5 km
Speed
7.126 km/s
True Right ascension
12h 31m 31s
True Declination
67° 42' 52"
Sunlit
Object was in daylight at epoch
Visualization orbit readout
Latitude
Unknown
Longitude
Unknown
Altitude
Unknown
Speed
Unknown
Apparent Right ascension
Unknown
Apparent Declination
Unknown
Sunlit
N/A
Visualization observer readout
Local Sidereal Time
21:45:46
Azimuth
Unknown
Elevation
Unknown
Doppler factor
Unknown
Orbital elements
Apogee altitude
1,560.283 km
Perigee altitude
1,497.608 km
Semi-major axis
7,907.082 km
Eccentricity
0.00396
Inclination
101.9258°
RAAN
218.9197°
Arg. of periapsis
41.9895°
True anomaly
29.08076°
Mean anomaly
28.8606°
Eccentric anomaly
28.97059°
Mean motion
3.08687 °/min
Orbital period
116.62 mins
BSTAR
-0.00020462
Loading maneuver chart data...
Computing Atmospheric mass density...
Loading historical data...
Loading historical data...
Loading historical data...
Loading historical data...
Loading historical data...
Loading historical data...
Loading historical data...

Documentation

Showing up to 5 results
|